Flag for Pakistan Weather past 2 weeks in Karachi, Sindh, Pakistan

Now
88 °F

Partly sunny.


Feels Like: 102 °F
Forecast: 86 / 94 °F
Wind: 17 mph from Southwest

Location: Karachi Airport

Current Time: Jul 6, 2015 at 10:08:32 AM

Latest Report: Jul 6, 2015 at 9:25 AM


Visibility: 4 mi

Pressure: 29.47 "Hg

Humidity: 75%

Dew point: 79 °F

Location of KarachiLocation

Historic Weather in Karachi — Graph

°F

Karachi temperature yesterday

Maximum temperature yesterday: 91 °F (at 12:25 PM)
Minimum temperature yesterday: 86 °F (at 12:25 AM)
Average temperature yesterday: 88 °F

Past Weeks' High & Low Weather Summary

 TemperatureHumidityPressure
High108 °F (Jun 21, 2:55 PM)79% (Jul 6, 4:25 AM)29.71 "Hg (Jul 6, 4:25 AM)
Low86 °F (Jun 27, 9:25 PM)23% (Jun 21, 4:25 PM)29.30 "Hg (Jun 22, 3:55 PM)
Average92 °F59%29.51 "Hg
* Reported Jun 21 8:25 AM — Jul 6 8:55 AM, Karachi, Weather by CustomWeather, © 2015

Note: Actual official high and low records may vary slightly from our data, if they occured in-between our weather recording intervals... More about our weather records

Advertising

Karachi weather history for previous 24 hours

 ConditionsComfort  
Time TempWeatherWind HumidityBarometerVisibility
8:55 AM
Mon, Jul 6
88 °FPartly sunny.14 mph75%29.47 "Hg4 mi
7:55 AM88 °FPartly sunny.15 mph75%29.45 "Hg4 mi
7:25 AM88 °FPartly sunny.16 mph75%29.45 "Hg4 mi
6:55 AM88 °FPartly sunny.15 mph75%29.45 "Hg4 mi
6:25 AM86 °FPartly sunny.16 mph79%29.45 "Hg4 mi
5:55 AM86 °FPartly sunny.14 mph79%29.45 "Hg4 mi
5:25 AM86 °FPassing clouds.16 mph79%29.45 "Hg4 mi
4:55 AM86 °FPassing clouds.12 mph79%29.45 "Hg4 mi
4:25 AM86 °FPassing clouds.12 mph79%29.45 "Hg4 mi
3:55 AM86 °FPassing clouds.14 mph75%29.42 "Hg4 mi
3:25 AM86 °FPassing clouds.16 mph75%29.45 "Hg4 mi
2:55 AM86 °FPassing clouds.14 mph75%29.45 "Hg4 mi
2:25 AM86 °FPassing clouds.14 mph75%29.45 "Hg4 mi
1:55 AM86 °FPassing clouds.12 mph75%29.45 "Hg4 mi
1:25 AM86 °FPassing clouds.13 mph75%29.45 "Hg4 mi
12:55 AM86 °FPassing clouds.14 mph75%29.47 "Hg4 mi
12:25 AM86 °FPassing clouds.16 mph75%29.47 "Hg4 mi
11:55 PM
Sun, Jul 5
86 °FPassing clouds.18 mph75%29.47 "Hg4 mi
11:25 PM88 °FPartly cloudy.14 mph70%29.50 "Hg4 mi
10:55 PM88 °FPartly cloudy.17 mph70%29.50 "Hg4 mi
10:25 PM88 °FPartly cloudy.15 mph70%29.50 "Hg4 mi
9:55 PM88 °FPartly cloudy.20 mph70%29.50 "Hg4 mi
9:25 PM88 °FPartly cloudy.16 mph70%29.50 "Hg4 mi
8:55 PM88 °FPartly cloudy.18 mph70%29.50 "Hg4 mi
8:25 PM88 °FDrizzle. Mostly cloudy.18 mph70%29.47 "Hg4 mi
7:55 PM88 °FMostly cloudy.17 mph70%29.47 "Hg4 mi
6:55 PM88 °FMostly cloudy.21 mph70%29.47 "Hg4 mi
6:25 PM88 °FMostly cloudy.23 mph66%29.47 "Hg4 mi
5:55 PM90 °FMostly cloudy.25 mph63%29.47 "Hg4 mi
5:25 PM90 °FBroken clouds.25 mph63%29.47 "Hg4 mi
4:55 PM90 °FBroken clouds.25 mph63%29.47 "Hg4 mi
4:25 PM90 °FBroken clouds.25 mph63%29.47 "Hg4 mi
3:55 PM90 °FBroken clouds.25 mph63%29.47 "Hg4 mi
3:25 PM90 °FBroken clouds.23 mph63%29.47 "Hg4 mi
2:55 PM90 °FBroken clouds.23 mph63%29.47 "Hg4 mi
2:25 PM91 °FBroken clouds.23 mph59%29.47 "Hg4 mi
1:55 PM91 °FBroken clouds.24 mph59%29.50 "Hg4 mi
1:25 PM91 °FBroken clouds.25 mph59%29.50 "Hg4 mi
12:55 PM91 °FBroken clouds.25 mph59%29.50 "Hg4 mi
12:25 PM91 °FBroken clouds.29 mph59%29.50 "Hg4 mi
11:55 AM90 °FBroken clouds.23 mph67%29.53 "Hg4 mi
11:25 AM90 °FBroken clouds.23 mph63%29.53 "Hg4 mi
10:55 AM90 °FMore clouds than sun.21 mph63%29.53 "Hg4 mi
10:25 AM90 °FMore clouds than sun.25 mph63%29.53 "Hg4 mi
Weather by CustomWeather, © 2015

See weather overviewHow to use our weather pages